Regional Weather Roundup
Issued by NWS

Home | Current Version | Previous Version | Text Only | Print | Product List | Glossary Off
Versions: 1 2 3 4 5 6 7 8 9 10 11 12 13 14 15 16 17 18 19 20 21 22 23 24 25 26 27 28 29 30 31 32 33 34 35 36 37 38 39 40 41 42 43 44 45 46 47 48 49 50

196
ASUS46 KLOX 050213
RWRCA

SOUTHERN CALIFORNIA WEATHER ROUNDUP
NATIONAL WEATHER SERVICE OXNARD CALIFORNIA
700 PM PDT WED MAY 04 2016

NOTE: "FAIR" INDICATES FEW OR NO CLOUDS BELOW 12,000 FEET WITH NO
SIGNIFICANT WEATHER AND/OR OBSTRUCTIONS TO VISIBILITY.

  -  STATIONS PRECEEDED BY AN ASTERISK (*) ARE NOT NWS OR FAA
     STATIONS AND ARE NOT SUBJECT TO NWS AND FAA QUALITY CONTROL.

CAZ041-042-087-050300-
LA AND ORANGE COUNTY COASTAL AREAS


CITY           SKY/WX    TMP DP  RH WIND       PRES   REMARKS
L.A. DOWNTOWN  CLEAR     62  52  69 VRB3      29.90R
L.A. AIRPORT   PTCLDY    61  52  72 W10       29.90F
LONG BEACH     CLEAR     64  52  64 NW8       29.90S

CITY           SKY/WX    TMP DP  RH WIND       PRES   REMARKS
AVALON           N/A     64 N/A N/A E3          N/A
FULLERTON      CLEAR     61  52  72 S8        29.90R
*GETTY CENTER    N/A     55  50  82 SW9         N/A
HAWTHORNE      CLEAR     61  52  72 SW9       29.91S
*LEO CARRILLO    N/A     60  53  77 SW7         N/A
*LOS ALAMITOS  FAIR      63  53  70 S9        29.90F
*REDONDO BEACH   N/A     62  53  73 CALM      29.90S
SANTA ANA      PTCLDY    62  52  69 SW9       29.91S
STA MONICA APT PTCLDY    61  52  72 SW9       29.91S
*STA MON PIER    N/A     59  55  85 W10       29.84S
TORRANCE       MOCLDY    63  54  72 W9        29.91S
*UCLA            N/A     59  50  72 SW6       29.87S

$$

CAZ547-548-048-050300-
LA COUNTY VALLEYS AND INLAND EMPIRE


CITY           SKY/WX    TMP DP  RH WIND       PRES   REMARKS
BURBANK        CLEAR     61  51  70 S13       29.87S
VAN NUYS       CLEAR     62  51  67 SE10      29.87R

CITY           SKY/WX    TMP DP  RH WIND       PRES   REMARKS
CORONA AIRPORT CLEAR     64  53  67 W10G18    29.88R
*CHATSWORTH      N/A     65  50  59 E7        29.87R
CHINO          PTCLDY    64  52  64 W10G20    29.90R
*CLAREMONT       N/A     64  52  64 SW9         N/A
MARCH AFB      CLEAR     65  51  62 NW10      29.89R
*NORTHRIDGE      N/A     64  48  55 E3          N/A
ONTARIO        PTCLDY    65  51  60 W15       29.88R
*PASADENA        N/A     64  54  68 E1          N/A
POMONA         CLEAR     64  52  63 SW12      29.92R
RIVERSIDE      PTCLDY    64  51  62 W9        29.89R
SAN BERNARDINO CLEAR     68  52  56 SW12      29.89R
*SAN RAFAEL HI   N/A     59  42  53 SE5         N/A
*SAUGUS          N/A     72  51  48 S14         N/A
*WHITEMAN AP   MOCLDY    63  50  63 SE9       29.91R
*WHITTIER HILL   N/A     62  51  66 S7G18       N/A
*WOODLAND HILL   N/A     66  52  59 SE6         N/A

$$

CAZ054-055-050300-
LA AND SAN BERNARDINO COUNTY MOUNTAINS


CITY           SKY/WX    TMP DP  RH WIND       PRES   REMARKS
*ACTON           N/A     66  43  42 W6          N/A
*BIG BEAR AIRP CLEAR     54  37  54 S6        30.04S
*BIG PINES       N/A     49  34  55 CALM        N/A
SANDBERG       PTCLDY    60  36  40 S16G25    29.94F

$$

CAZ028-029-059-060-099-050300-
ANTELOPE VALLEY AND SURROUNDING AREAS


CITY           SKY/WX    TMP DP  RH WIND       PRES   REMARKS
LANCASTER      PTCLDY    69  41  36 W17       29.87R
PALMDALE       PTCLDY    69  42  37 SW22      29.86R
*POPPY PARK      N/A     68  45  44 SW10        N/A

CITY           SKY/WX    TMP DP  RH WIND       PRES   REMARKS
29 PALMS       MOCLDY    84  29  13 S15G22    29.83R
BARSTOW/DAGGET PTCLDY    84  42  22 SW20      29.75R
BISHOP         MOCLDY    75  26  16 S23G33    29.83R
CHINA LAKE     MOCLDY    81  27  14 S17       29.77S
EDWARDS AFB    MOCLDY    72  41  32 SW24      29.81R
MOJAVE         CLEAR     72  37  28 SW23G31   29.85S
NEEDLES        MOCLDY    95  25   8 SW13G21   29.68F
VICTORVILLE    CLEAR     72  46  40 S22G28    29.88R

$$

CAZ039-040-050300-
VENTURA AND SANTA BARBARA COUNTY COAST


CITY           SKY/WX    TMP DP  RH WIND       PRES   REMARKS
CAMARILLO      PTCLDY    62  50  64 SW9       29.89R
NWS OXNARD       N/A     61  50  67 SW10      29.88S
OXNARD AIRPORT PTCLDY    61  53  75 SW8       29.89S
*POINT MUGU    PTCLDY    60  52  74 SW8       29.91R
SBA APT/GOLETA PTCLDY    60  53  77 W7        29.88F
*SANTA BARBARA   N/A     63  52  65 CALM      29.96S
*VENTURA         N/A     60  53  79 SW6       29.88R

$$

CAZ044-045-050300-
VENTURA COUNTY VALLEYS


CITY           SKY/WX    TMP DP  RH WIND       PRES   REMARKS
*SIMI VALLEY     N/A     62  52  70 W3        29.85R
*WESTLAKE VILL   N/A     60  51  70 CALM      29.87R
*OJAI            N/A     62  53  72 CALM      29.83R
*FILLMORE        N/A     64  53  68 CALM      29.78R

$$

CAZ053-050300-
VENTURA COUNTY MOUNTAINS


CITY           SKY/WX    TMP DP  RH WIND       PRES   REMARKS
*LOCKWOOD VLY    N/A     57  28  33 SW2         N/A
*ROSE VALLEY     N/A     64  30  27 MISG        N/A

$$

CAZ034-035-036-050300-
CENTRAL COAST AND SANTA YNEZ VALLEY


CITY           SKY/WX    TMP DP  RH WIND       PRES   REMARKS
SAN LUIS OBISP CLOUDY    60  51  72 SW7       29.90S
SANTA MARIA    MOCLDY    59  49  69 W10       29.90R

CITY           SKY/WX    TMP DP  RH WIND       PRES   REMARKS
*CAL POLY SLO    N/A     59  52  77 NW6G12      N/A
*LOMPOC        CLEAR     61  48  62 W13       29.90R
*PISMO BEACH     N/A     57  54  90 SW5       29.91S
*SANTA YNEZ    FAIR      63  46  55 W9        29.88S

$$

CAZ037-038-051-050300-
SAN LUIS OBISPO COUNTY INTERIOR AND CUYAMA VALLEY


CITY           SKY/WX    TMP DP  RH WIND       PRES   REMARKS
*CUYAMA          N/A     63  47  57 W7        29.75F
PASO ROBLES    MOCLDY    58  48  69 SW12      29.88F

$$

CAZ032-033-061-050300-
SOUTHERN DESERTS


CITY           SKY/WX    TMP DP  RH WIND       PRES   REMARKS
BLYTHE         PTCLDY    93  36  13 S16       29.68F
IMPERIAL       MOCLDY    92  33  12 SE16      29.66S
PALM SPRINGS   PTCLDY    87  42  20 W23G35    29.71R
THERMAL        PTCLDY    93  36  13 SE12      29.64S

$$

ELSEWHERE ACROSS THE WESTERN UNITED STATES AND MEXICO


CITY           SKY/WX    TMP DP  RH WIND       PRES   REMARKS
DEATH VALLEY,    N/A     99  24   7 E5          N/A  HX  92
DENVER, CO     PTCLDY    61  37  41 E10       30.14R
GRAND CANYON,  PTCLDY    69  23  17 S6        30.11F
HONOLULU, HI   PTSUNNY   79  66  65 E15       30.03F
KAHULUI, MAUI  PTSUNNY   81  63  54 E16G29    30.01F
LAKE TAHOE, CA CLOUDY    56  37  49 VRB6G18   29.94F
LAS VEGAS, NV  MOCLDY    89  21   8 S8        29.72F
MAMMOTH LAKES, MOCLDY    56  33  42 W9        30.00F
MEXICO CITY, M TSTM      72  50  46 N16       30.29
PHOENIX, AZ    PTCLDY    97  24   7 SW8       29.70S HX  90
PORTLAND, OR   CLOUDY    60  50  69 NW10      29.96S
RENO, NV       CLOUDY    65  37  35 S13       29.89R
SALT LAKE CITY MOCLDY    75  38  26 N10       29.94S
SAN DIEGO, CA  MOCLDY    64  50  60 NW3       29.95F
SAN FRANCISCO, PTSUNNY   60  54  80 SW15      29.86S
SAN JOSE, CA   CLOUDY    65  52  62 NW12      29.83S
SEATTLE, WA    CLOUDY    57  44  62 N8        30.00S
TIJUANA, MEX   MOCLDY    61  48  63 W8        29.96S

$$

STATION/POSITION TIME  TEMP    WIND        PRES    VSBY  WAVE
                       AIR SEA DIR/SP/G                  HT/PER
                 (UTC) (F)     (DEG/KT/KT) (MB)    (MI)  (FT/S)
POINT ARGUELLO B NOT AVBL
WEST SANTA BARBA 0150   58 58  250/  6/  6 1012.0S         4/12
POINT CONCEPTION NOT AVBL
EAST SANTA BARBA 0100   59 58  260/  8/ 10 1012.5F
SANTA MONICA BAY 0150   59 61  240/  8/ 10 1012.7R         3/12



USA.gov is the U.S. government's official web portal to all federal, state and local government web resources and services.